Location: Eaton Estates
(41.3089°N, 82.0057°W)
Time: 15:15:38
(UTC+00:00)

NOAA 18 - Pass Details

Date: 10 April 2023
Orbit: 838 x 860 km, 98.9° (Epoch: 03 June)

Event Time Altitude Azimuth Distance (km) Brightness Sun altitude
Exits shadow 03:57:21 34° 310° (NW) 1,377 6.6 -36.5°
Drops below altitude 10° 04:00:48 10° 335° (NNW) 2,504 8.4 -36.8°
Sets 04:03:17 0° 341° (NNW) 3,443 9.3 -37.0°
